This demonstration page uses our WeatherBlox Daily Observations layout. Learn more.

38.80484, -77.04692

Hourly Observations for March 26, 2020

Temp ( °F °C ) Dew Point ( °F °C ) Humidity (%) Winds ( mph kmh ) Pressure ( in mb ) Visibility ( mi km ) Precip ( " mm )
12:25 am 00:25 Cloudy 46 7.8 42 5.6 86 86 NNW 5 7 30.09 1019 10 16.0934 0 0
12:52 am 00:52 Cloudy 47 8.3 41 5 80 80 N 6 9 30.09 1019 10 16.0934 0 0
1:10 am 01:10 Cloudy 47 8.3 41 5 80 80 NNW 5 7 30.1 1019 10 16.0934 0 0
1:42 am 01:42 Cloudy 46 7.8 42 5.6 86 86 N 7 11 30.1 1019 10 16.0934 0 0
1:52 am 01:52 Cloudy 46 7.8 42 5.6 86 86 NNW 7 11 30.09 1019 10 16.0934 0 0
2:47 am 02:47 Cloudy 46 8 39 4 76 76 NNE 6 9 30.08 1019 10 16.0934 0 0
2:52 am 02:52 Cloudy 46 7.8 39 3.9 77 77 NE 6 9 30.08 1019 10 16.0934 0 0
3:08 am 03:08 Cloudy 46 7.8 39 3.9 77 77 NE 6 9 30.08 1019 10 16.0934 0 0
3:52 am 03:52 Mostly Cloudy 46 7.8 40 4.4 79 79 Calm 30.07 1018 10 16.0934 0 0
4:13 am 04:13 Mostly Cloudy 46 7.8 41 5 83 83 Calm 30.07 1018 10 16.0934 0 0
4:52 am 04:52 Mostly Cloudy 46 7.8 41 5 83 83 SW 3 6 30.08 1019 10 16.0934 0 0
5:52 am 05:52 Cloudy 46 7.8 42 5.6 86 86 W 6 9 30.1 1019 7 11.26538 0 0
6:52 am 06:52 Cloudy 46 7.8 42 5.6 86 86 Calm 30.09 1019 7 11.26538 0 0
7:36 am 07:36 Hazy 46 7.8 41 5 83 83 ESE 3 6 30.09 1019 6 9.65604 0 0
7:52 am 07:52 Partly Cloudy with Mist and Fog 46 7.8 42 5.6 86 86 SE 3 6 30.09 1019 6 9.65604 0 0
8:52 am 08:52 Mostly Sunny 49 9.4 42 5.6 77 77 SW 5 7 30.11 1020 7 11.26538 0 0
9:29 am 09:29 Mostly Cloudy 49 9.4 40 4.4 71 71 SW 7 11 30.12 1020 10 16.0934 0 0
9:52 am 09:52 Mostly Cloudy 51 10.6 42 5.6 71 71 SSE 6 9 30.11 1020 10 16.0934 0 0
10:52 am 10:52 Mostly Cloudy 51 10.6 41 5 69 69 SW 8 13 30.12 1020 10 16.0934 0 0
11:52 am 11:52 Mostly Cloudy 52 11.1 42 5.6 69 69 S 8 13 30.1 1019 10 16.0934 0 0
12:52 pm 12:52 Partly Cloudy 54 12.2 44 6.7 69 69 SSE 12 19 30.07 1018 10 16.0934 0 0
1:52 pm 13:52 Mostly Sunny 56 13.3 44 6.7 65 65 S 14 22 30.04 1017 10 16.0934 0 0
2:52 pm 14:52 Mostly Sunny 57 13.9 43 6.1 60 60 S 12 19 29.99 1016 10 16.0934 0 0
3:52 pm 15:52 Partly Cloudy 58 14.4 45 7.2 62 62 S 10 17 29.96 1015 10 16.0934 0 0
4:52 pm 16:52 Partly Cloudy 58 14.4 44 6.7 60 60 S 12 19 29.93 1014 10 16.0934 0 0
5:52 pm 17:52 Partly Cloudy 58 14.4 45 7.2 62 62 S 13 20 29.92 1013 10 16.0934 0 0
6:52 pm 18:52 Mostly Cloudy 56 13.3 45 7.2 67 67 S 12 19 29.93 1013 10 16.0934 0 0
7:52 pm 19:52 Mostly Cloudy 55 12.8 45 7.2 69 69 SSE 12 19 29.9 1012 10 16.0934 0 0
8:52 pm 20:52 Mostly Cloudy 54 12.2 46 7.8 75 75 S 10 17 29.9 1013 10 16.0934 0 0
9:52 pm 21:52 Mostly Cloudy 54 12.2 47 8.3 77 77 S 12 19 29.87 1011 10 16.0934 0 0
10:52 pm 22:52 Cloudy 53 11.7 47 8.3 80 80 S 10 17 29.85 1011 10 16.0934 0 0
11:52 pm 23:52 Cloudy 54 12.2 45 7.2 72 72 S 9 15 29.85 1011 10 16.0934 0 0

Powered by AerisWeather